Location: *
(47.8307°S, 178.3954°E)
Time: 08:17:56
(UTC+00:00)

CENTAUR R/B - Pass Details

Date: 12 August 2024
Orbit: 662 x 1522 km, 63.4° (Epoch: 18 September)

Event Time Altitude Azimuth Distance (km) Brightness Sun altitude
Exits shadow 17:46:18 - 216° (SW) 2,797 4.5 -15.0°
Reaches altitude 10° 17:46:55 10° 214° (SW) 2,572 4.3 -14.9°
Maximum altitude 17:52:23 41° 144° (SE) 1,132 3.1 -14.0°
Drops below altitude 10° 17:57:04 10° 73° (ENE) 2,188 5.8 -13.2°
Sets 17:59:22 0° 65° (ENE) 3,051 6.7 -12.8°
